Theta_e
303 300 298 298 297 296 295 294 293 293 293 293 291 291 291 290 290 290 290 290 289 289 289 289 289 289 289 288 289 289 289 288 287 287 286 284 284 285 285 285 286 284 283
303 299 298 297 295 295 294 293 292 292 293 291 291 290 290 290 289 289 289 289 289 289 289 288 288 288 288 288 287 288 287 287 286 286 284 283 283 284 284 284 285 285 284
301 299 296 295 295 294 293 292 292 292 292 291 290 289 289 289 288 288 288 288 288 288 288 287 288 287 287 286 286 285 285 285 285 284 283 282 282 283 283 283 284 285 285
301 298 296 295 294 293 292 292 291 292 290 289 289 288 288 288 287 287 287 287 288 288 287 287 287 287 286 285 284 284 284 284 284 283 283 282 282 282 282 282 283 285 285
302 299 298 298 295 293 292 291 292 290 289 288 287 287 287 287 287 287 286 287 287 287 286 286 286 286 286 285 284 284 284 283 283 283 283 282 282 282 282 281 281 283 282
301 299 297 296 302 294 292 291 291 289 287 287 286 286 286 286 286 286 286 287 287 286 286 285 285 285 285 285 284 284 283 283 283 283 283 283 282 281 281 280 280 281 281
302 301 298 297 296 294 292 291 289 288 286 285 285 286 286 286 286 286 286 287 287 286 285 285 285 284 284 283 283 283 282 281 282 282 281 282 281 280 279 280 280 279 279
302 302 299 295 294 293 292 290 287 285 285 285 285 286 286 286 286 286 287 286 286 285 284 284 284 283 283 282 282 281 281 281 281 280 280 279 278 278 278 277 278 278 278
302 301 300 298 295 293 291 289 286 285 284 284 285 286 286 286 286 286 286 286 285 284 283 284 283 282 282 281 281 280 280 280 279 279 279 278 278 277 277 277 278 278 277
302 301 301 299 296 292 288 288 287 284 284 286 286 286 285 286 286 286 285 285 285 284 284 284 283 282 281 281 280 280 280 280 279 278 278 277 277 276 275 275 275 276 276
302 301 299 297 294 290 289 288 288 287 288 288 288 287 285 285 285 285 285 285 285 284 284 283 282 282 281 281 280 280 280 279 278 277 277 276 276 275 275 275 274 274 275
302 300 298 295 293 290 289 289 289 288 288 288 288 287 286 283 285 285 284 284 284 284 283 282 282 281 280 280 280 280 279 277 276 275 275 275 275 275 274 274 274 274 274
300 298 296 294 292 292 290 289 288 288 288 288 287 287 287 284 283 284 284 284 283 283 282 281 280 280 279 279 279 279 278 277 276 275 275 275 274 273 273 273 273 273 274
299 297 294 292 292 291 289 287 288 288 288 288 287 287 287 286 284 282 283 283 283 282 281 280 279 279 279 278 278 278 277 277 276 275 274 273 273 273 273 273 273 273 273
297 295 293 292 292 290 288 287 288 288 289 288 287 287 287 286 285 283 282 281 281 280 280 279 279 279 278 278 277 277 276 276 276 275 273 273 273 272 272 272 272 272 271
296 294 293 292 290 289 287 288 288 288 288 287 287 286 286 284 283 283 282 281 280 280 280 279 279 279 278 277 277 277 276 276 275 275 274 272 272 271 271 270 270 271 271
296 294 293 291 290 288 287 287 287 287 286 286 286 285 284 283 285 284 283 282 280 280 280 279 279 279 278 278 277 277 276 276 275 275 273 272 271 271 270 270 270 270 270
294 294 292 291 290 288 287 287 287 287 287 287 286 286 286 285 285 284 283 283 281 280 280 279 278 278 278 278 277 277 276 276 275 274 273 272 271 270 270 269 269 269 268
293 292 291 291 289 288 287 287 287 287 287 287 286 286 286 285 285 284 282 282 282 281 280 279 279 278 279 278 278 277 277 276 275 274 273 271 270 269 269 269 269 268 267
293 292 291 290 289 288 288 288 287 287 287 287 287 286 286 285 284 283 282 281 281 281 280 280 279 278 278 278 278 277 277 276 275 274 273 271 270 269 268 268 267 267 267
292 291 290 289 289 289 288 288 288 287 287 287 287 286 286 285 285 284 282 281 281 281 281 280 279 279 279 278 278 277 276 276 275 274 272 270 269 269 268 267 267 267 266
292 291 290 290 289 289 288 288 288 288 287 287 287 286 285 284 283 283 282 282 282 281 280 280 279 279 279 278 278 277 276 275 274 273 270 269 268 268 267 267 267 266 266
292 291 290 290 289 289 289 288 288 288 288 287 286 286 285 285 285 284 284 283 282 282 281 281 280 280 279 278 277 276 275 274 273 271 269 268 268 267 267 266 266 266 265
291 291 290 290 289 289 288 288 288 287 287 286 286 285 285 285 285 284 284 283 282 282 281 280 280 280 278 277 276 275 274 273 271 269 268 268 267 267 266 266 266 265 264
290 290 290 289 289 288 287 287 286 286 286 286 286 286 285 285 285 285 284 283 282 281 280 280 278 277 277 276 275 274 273 271 269 268 268 267 267 266 266 266 265 264 264
289 289 288 288 287 287 287 286 286 286 286 286 286 286 285 285 284 284 283 282 281 280 279 278 277 276 275 274 273 272 270 269 268 268 267 267 266 266 266 265 264 264 263
Wind_Speed
29 29 30 28 26 24 22 20 18 15 13 12 11 10 10 10 9 7 8 8 8 8 7 6 5 5 4 4 4 4 5 4 3 3 8 10 9 8 8 9 9 10 17
28 29 29 28 26 25 24 22 20 17 14 13 12 12 11 11 11 10 10 10 9 10 9 8 7 7 5 3 2 1 3 3 3 5 7 8 10 9 9 8 9 9 12
28 29 30 29 27 25 24 24 21 16 15 14 13 13 13 12 13 13 12 12 12 11 11 10 9 8 6 5 3 1 2 5 6 7 7 8 8 6 7 7 9 8 9
31 31 31 29 27 26 25 23 19 17 15 15 14 14 14 15 15 15 15 14 14 12 12 10 8 7 7 6 4 3 5 6 6 6 5 7 9 9 8 6 8 8 7
34 33 32 29 25 23 22 22 19 17 16 15 16 17 17 17 17 17 16 15 13 11 11 9 6 6 5 5 6 6 6 6 6 6 5 6 8 11 13 13 11 9 10
35 34 33 30 26 24 22 22 20 19 19 17 18 18 19 20 21 18 15 14 13 11 10 7 5 4 4 5 4 6 7 8 8 7 7 7 8 10 12 14 13 13 12
37 34 33 31 29 28 27 26 22 22 21 21 22 21 21 20 19 19 17 13 11 10 7 5 4 2 3 3 5 8 9 9 8 10 11 11 12 13 12 12 14 14 11
39 35 32 31 30 29 29 24 23 24 23 24 24 22 21 21 20 18 15 12 10 8 5 3 2 1 2 4 4 5 7 7 7 9 10 12 14 15 14 13 12 11 9
39 36 30 30 31 30 30 28 26 26 26 25 23 21 21 22 21 18 14 11 9 7 5 3 2 1 3 4 5 6 5 5 6 4 6 9 11 14 14 11 10 11 9
39 34 30 29 30 31 30 28 27 25 25 23 21 16 20 22 21 19 14 11 10 8 6 3 3 3 2 3 4 6 6 5 6 7 9 11 13 13 11 12 12 11 11
33 31 28 25 27 29 30 28 26 27 25 22 22 18 18 22 22 20 18 13 10 7 5 3 4 4 3 3 4 4 5 6 7 8 10 12 11 11 9 8 9 10 10
30 29 26 25 26 28 29 31 28 26 24 24 24 20 18 23 23 21 18 15 12 8 7 6 5 6 4 3 3 4 5 5 5 7 9 10 11 11 10 8 7 5 7
28 28 26 24 25 25 30 31 28 28 27 27 27 23 21 22 24 22 19 17 14 12 9 8 7 5 4 3 2 3 4 6 8 10 12 13 13 12 12 9 7 6 7
26 27 27 27 25 26 29 30 32 31 31 27 28 24 21 20 22 24 23 20 17 15 12 9 7 6 5 4 1 4 7 10 12 15 16 15 14 13 11 11 12 12 9
28 28 29 29 27 28 30 32 33 30 25 27 25 21 21 21 20 20 20 19 18 15 14 12 10 8 6 3 3 5 8 11 14 17 17 16 16 14 12 11 12 13 12
30 30 30 29 28 30 31 33 27 20 22 20 17 18 18 14 14 17 16 16 16 16 14 12 11 9 6 4 5 6 8 11 15 18 19 19 17 15 12 10 12 13 12
28 29 29 29 29 31 32 29 29 25 19 18 17 16 16 18 16 14 14 13 14 15 14 13 12 11 8 6 6 6 9 11 15 19 19 17 15 13 12 13 12 13 13
26 27 28 29 29 30 30 29 27 26 25 21 17 14 14 13 11 13 14 15 17 18 16 14 14 14 13 11 8 8 10 13 16 18 17 15 15 15 16 15 15 14 14
26 25 25 25 26 26 26 25 24 22 20 17 16 18 16 15 15 15 16 19 17 16 15 15 17 16 16 15 12 11 12 15 17 18 17 16 16 16 17 16 16 14 13
23 21 22 23 23 23 22 22 21 20 19 18 17 17 19 21 21 21 22 20 18 17 15 16 17 18 17 17 17 15 16 17 17 19 18 17 17 18 17 15 16 15 15
22 21 20 21 21 22 21 21 20 20 20 19 17 16 17 20 22 23 21 18 16 15 15 15 18 18 17 20 21 21 19 18 18 19 19 18 17 17 16 17 17 17 17
21 21 22 21 21 21 21 21 20 20 21 20 17 15 15 15 14 16 17 16 14 13 13 16 18 20 20 21 25 22 20 19 19 19 18 17 17 16 16 17 17 17 17
23 22 22 22 21 19 19 20 21 21 20 19 16 15 16 16 14 14 14 14 14 15 17 20 22 23 23 25 24 22 20 19 18 18 16 15 16 17 16 16 16 16 17
22 22 22 22 21 20 20 20 20 19 18 17 15 15 15 15 15 15 17 18 17 17 17 17 19 22 23 22 22 20 19 18 17 15 14 15 15 16 16 16 17 16 14
19 20 21 21 20 19 18 17 17 17 16 15 15 15 15 16 17 18 20 19 18 16 16 15 14 16 18 19 18 19 20 19 17 15 14 14 14 15 15 15 14 15 15
17 18 17 18 17 16 15 15 15 15 16 16 16 18 16 16 17 16 16 17 16 16 16 16 16 17 17 17 18 18 17 15 15 14 14 14 14 14 14 14 16 17 17
Wind_Direction
200 199 203 201 204 206 207 208 210 207 207 207 205 207 202 199 191 187 182 173 166 162 142 137 124 113 91 74 54 50 39 36 85 358 353 3 6 11 8 359 356 15 19
200 198 200 201 200 204 206 208 209 208 209 206 203 203 198 196 190 187 183 172 164 155 146 143 131 113 105 89 68 24 3 30 3 358 7 15 9 8 9 3 353 351 9
202 198 199 200 203 206 209 208 208 207 212 205 197 199 193 188 184 179 174 162 155 150 141 142 131 118 112 100 94 59 29 31 18 14 14 14 12 14 5 359 356 348 7
202 201 200 203 207 208 210 211 206 204 204 201 196 193 187 183 176 170 167 160 154 149 141 134 119 114 109 103 96 82 52 31 25 25 14 13 16 16 4 11 356 359 11
204 203 204 200 209 210 212 211 208 206 201 199 197 187 182 178 172 167 162 159 158 156 149 138 130 114 94 95 90 73 49 31 21 17 12 12 8 4 2 5 7 5 352
204 204 202 201 208 213 216 219 209 209 202 196 192 188 181 173 168 164 165 163 161 154 148 138 115 82 79 79 59 56 36 20 13 18 20 17 19 13 3 355 349 351 360
206 208 208 210 205 205 208 213 211 208 202 193 188 182 177 178 178 175 173 173 168 145 134 118 100 70 42 36 29 20 8 3 0 10 7 10 9 11 7 354 354 357 353
205 209 208 206 209 208 209 212 216 203 196 191 187 185 185 183 181 182 178 170 162 148 138 116 97 23 358 339 1 358 346 346 350 3 1 1 356 353 358 1 359 354 344
206 208 207 215 214 212 209 209 205 195 190 190 189 189 190 187 180 185 177 176 179 177 171 161 156 184 274 314 322 321 330 342 350 3 325 329 333 339 345 349 350 348 357
208 208 210 214 216 212 204 205 197 192 189 184 184 183 189 191 183 183 188 191 195 189 183 190 209 210 234 276 288 294 303 315 314 311 315 324 332 338 337 344 350 356 0
207 208 207 209 208 203 199 192 186 183 186 186 187 182 190 199 197 196 201 205 205 209 215 224 252 252 268 269 274 285 304 315 315 317 316 321 326 328 333 335 340 341 348
206 203 204 204 203 196 194 192 199 186 186 193 191 191 194 198 206 208 213 213 218 223 236 254 261 273 276 286 308 333 4 2 348 321 319 328 335 338 342 339 331 319 311
201 201 202 199 201 203 195 192 185 191 196 195 197 204 199 199 204 213 220 220 226 235 241 244 243 230 240 264 287 344 19 5 359 346 343 341 340 343 333 317 304 289 284
199 200 198 195 200 201 189 187 193 194 201 205 205 211 210 209 211 214 218 224 229 235 237 235 224 224 233 231 297 347 5 354 353 352 346 341 337 331 324 315 310 315 313
200 198 194 197 202 192 190 196 199 212 211 207 218 225 223 221 222 221 225 228 229 229 228 225 221 225 234 251 294 329 339 343 343 343 339 330 327 328 328 310 307 316 328
197 196 197 198 195 190 192 194 213 214 212 225 238 245 238 229 223 214 210 206 209 217 219 223 222 224 234 270 288 311 321 331 333 333 331 326 325 325 329 320 313 318 331
203 203 202 195 195 193 196 201 197 193 210 227 235 220 208 208 206 207 211 203 206 212 219 228 230 230 231 252 286 309 317 319 324 326 325 323 325 326 330 329 320 319 324
208 207 196 195 195 196 200 204 210 211 208 206 202 200 196 197 210 218 219 220 216 224 231 239 241 236 236 248 271 297 309 313 317 320 320 320 322 325 331 327 320 316 319
200 198 195 197 194 198 206 213 215 217 216 216 213 211 212 218 227 232 233 232 236 242 241 243 244 243 240 247 261 281 300 306 311 316 315 312 314 320 321 318 316 311 312
193 192 193 192 193 199 206 208 210 215 220 223 225 226 222 219 221 224 229 240 239 244 245 249 241 243 246 253 258 270 285 299 302 309 310 310 313 316 313 314 316 309 310
189 185 187 194 200 203 205 209 215 217 222 229 231 234 242 243 242 243 245 249 248 250 251 253 246 247 263 258 256 263 275 293 299 306 305 302 303 303 304 308 310 307 307
194 191 195 198 203 209 213 216 221 225 227 228 232 233 233 230 234 237 241 244 246 247 248 247 252 255 260 258 252 262 278 290 296 300 296 293 293 296 300 304 305 304 303
203 202 204 206 209 213 218 222 225 227 227 230 236 231 230 233 235 237 240 241 245 245 253 258 264 268 262 249 250 264 280 288 291 291 288 287 289 293 297 298 297 295 297
208 209 210 210 212 215 220 225 225 227 232 231 228 230 236 243 247 249 250 247 252 253 270 272 267 262 249 245 260 273 279 284 288 285 281 282 284 286 289 294 299 302 300
204 205 208 213 215 216 218 218 218 219 220 226 234 243 248 252 254 258 255 249 249 262 273 259 239 237 252 266 273 278 281 283 282 281 282 284 286 290 295 298 296 296 294
199 201 205 205 205 208 207 205 206 212 222 231 240 245 248 256 255 252 248 248 253 259 245 245 261 270 273 276 277 278 277 278 280 281 283 287 289 292 294 293 293 295 294